User: anonymous
Location: Fort Wayne
(41.1310°N, 85.1290°W)
Time: 05:58:05
(UTC-04:00)
Language:

Iridium 37 - Orbit

View from above orbital plane
View from above orbital plane
View from above satellite
View from above satellite

Ground track
Ground track

The orbit data is extracted from the following two-line orbital elements,

1 24968U 97056D   14262.37342276  .00000382  00000-0  12923-3 0  9583
2 24968 086.4008 017.6030 0002402 115.6246 244.5198 14.34214916888942
Epoch (UTC): 19 September 2014 08:57:43
Eccentricity: 0.0002402
inclination: 86.4008°
perigee height: 776 km
apogee height: 779 km
right ascension of ascending node: 17.6030°
argument of perigee: 115.6246°
revolutions per day: 14.34214916
mean anomaly at epoch: 244.5198°
orbit number at epoch: 88894

The dashed part of the orbit path shows where the satellite is in the earth's shadow,  

DLR